Dewpoint
75 74 74 75 74 75 75 75 75 75 75 76 76 76 75 76 76 76 76 76 76 76 76 76 74 76 75 74 74 75 75 76 76 76 75 75 75 75 75 75 75 76 75 75 76 76 76 75 75 75 74 74 74 74 74 75 75 75 75 75 75 75 75 75 75 75 76 75 75 75 76 76 75 75 75 75 75 74 74 73 71 70 71 73 73
73 72 73 75 74 74 75 75 75 75 76 76 76 76 76 75 76 76 76 76 76 76 76 76 76 76 76 74 73 74 75 76 76 76 76 75 75 75 75 74 74 75 75 75 75 75 75 75 74 74 74 74 74 74 74 75 75 75 75 75 75 75 75 75 75 76 75 75 75 75 75 74 74 75 74 74 75 74 74 73 72 71 72 74 74
71 73 72 74 75 75 75 75 75 76 76 76 76 76 76 76 76 76 76 76 76 76 76 75 75 75 75 76 75 76 76 76 76 76 75 75 75 75 75 75 75 75 75 75 75 75 75 74 74 74 74 74 74 75 75 75 75 75 75 75 75 75 76 76 76 76 75 75 75 76 76 76 75 75 75 75 74 75 75 74 73 72 72 73 73
71 72 72 75 76 75 75 75 75 76 76 76 76 76 76 76 75 75 75 75 75 75 75 76 76 76 76 75 75 75 76 76 76 75 74 75 75 75 75 75 76 76 75 75 75 74 74 74 74 74 74 74 74 75 75 75 75 75 75 75 75 75 76 75 75 76 75 74 74 74 73 73 74 74 74 74 75 74 74 74 74 74 74 73 74
70 71 72 73 74 76 76 75 75 75 76 76 76 76 76 75 75 75 75 75 75 74 74 75 75 75 76 76 75 75 75 76 76 75 75 75 75 75 75 75 75 75 75 75 74 74 74 74 74 74 75 75 74 75 75 75 75 75 75 75 75 75 75 75 75 76 75 74 74 74 72 72 73 74 74 74 74 74 74 74 74 73 73 74 74
70 70 71 71 71 75 76 75 75 76 76 76 76 76 76 75 75 75 75 75 75 75 75 75 76 75 75 74 74 75 75 76 76 74 74 75 75 75 75 75 75 74 75 74 75 76 76 76 74 75 75 75 75 75 75 75 75 75 75 76 75 76 75 75 75 75 75 73 74 73 73 72 71 72 73 74 74 74 74 74 74 73 73 73 74
70 71 70 71 72 75 77 75 76 76 76 75 75 75 75 75 75 75 75 75 75 75 74 75 75 75 75 74 74 74 75 76 75 74 74 74 74 74 75 75 75 75 75 75 76 76 76 76 77 75 75 75 76 76 75 76 76 75 75 76 76 75 75 75 75 75 74 73 73 73 71 70 70 72 74 74 74 73 73 73 74 74 73 73 73
69 71 71 71 72 75 77 76 76 76 75 75 75 75 75 75 75 75 75 74 74 74 74 74 75 75 74 74 74 74 75 75 74 74 75 74 74 74 75 75 75 75 75 75 75 76 76 76 76 76 75 75 75 76 76 75 76 75 75 76 76 75 75 76 75 74 74 75 75 74 72 70 70 72 73 73 73 73 73 74 74 74 74 73 72
70 70 70 69 72 76 76 76 75 76 76 76 75 75 75 75 75 75 75 74 74 74 74 75 75 74 74 73 73 73 74 74 74 74 74 74 74 74 74 72 74 75 75 75 75 76 76 75 75 75 76 76 76 76 76 76 75 75 74 74 75 75 75 75 74 74 74 75 75 74 74 71 67 70 73 73 73 73 73 72 72 74 74 74 73
68 69 70 70 70 76 76 76 75 76 75 75 75 75 75 74 75 75 74 75 75 75 75 75 74 74 73 73 73 73 73 74 74 74 74 74 74 74 74 74 74 75 74 75 75 75 75 75 75 76 76 75 75 76 76 75 75 74 75 75 75 75 75 74 74 74 74 75 75 74 73 71 69 70 73 73 73 73 74 74 74 74 74 73 73
68 69 70 70 71 76 76 75 75 75 75 75 75 75 75 75 75 75 75 75 75 75 75 75 75 73 72 73 73 73 73 74 74 74 75 74 74 74 73 74 75 74 75 75 75 75 75 75 75 76 76 75 75 75 74 74 74 75 75 75 75 75 74 74 74 75 75 75 74 73 71 72 71 72 73 73 73 73 74 74 74 74 74 73 73
67 70 71 71 77 76 76 75 74 74 75 75 76 76 75 75 75 75 75 75 75 74 74 75 75 73 73 73 73 73 74 74 74 74 74 73 73 73 73 73 73 74 75 75 75 75 75 75 75 75 76 75 75 74 74 75 75 76 76 75 75 75 74 73 74 74 75 75 74 71 68 69 71 72 73 73 73 73 74 74 74 74 73 74 73
66 67 68 70 73 76 75 75 75 75 75 75 75 75 75 75 75 75 75 74 74 75 75 74 74 74 74 73 73 74 74 74 73 74 72 74 74 74 73 74 73 74 75 75 75 75 74 74 75 75 75 75 75 74 74 75 75 75 76 75 75 74 73 71 72 72 72 72 72 71 70 70 71 74 73 73 73 73 74 73 74 73 74 74 74
66 66 68 69 72 77 76 75 75 75 75 74 75 75 75 75 74 74 74 74 74 74 74 74 74 73 74 74 74 74 74 74 74 74 74 74 74 73 74 74 73 74 74 74 75 74 74 74 74 75 75 75 75 74 75 75 75 75 75 75 75 74 73 70 71 71 71 70 71 70 70 71 73 75 73 74 73 73 73 73 74 73 73 73 73
66 67 67 70 72 74 76 75 75 74 74 74 74 74 74 74 74 74 74 74 73 74 73 73 73 73 74 74 73 74 74 74 74 74 74 74 74 74 74 74 74 74 75 75 74 75 75 75 75 75 75 75 75 74 75 75 75 75 75 75 74 74 72 67 68 70 69 70 70 70 69 72 73 73 73 73 74 73 74 74 73 73 73 74 74
66 66 68 71 73 75 75 75 74 74 74 74 74 74 74 74 74 74 74 74 74 73 73 73 73 74 74 74 74 74 74 74 74 74 74 74 74 74 74 74 74 74 75 75 75 75 75 75 75 75 75 75 75 75 75 75 75 75 75 74 74 74 73 68 68 69 68 69 70 70 69 71 74 73 73 73 74 74 73 74 74 73 73 73 74
67 66 68 71 72 73 74 74 74 74 74 74 75 74 74 74 74 75 74 74 74 74 73 73 73 73 74 73 73 73 74 73 74 74 74 73 74 74 74 74 74 74 75 74 74 74 75 75 75 75 76 75 74 75 75 76 75 75 75 74 73 73 72 70 67 67 67 71 70 69 69 72 73 73 73 73 74 73 73 73 73 73 73 73 73
67 66 69 71 71 71 71 74 75 75 75 74 74 75 75 75 75 74 74 74 74 74 74 73 73 73 73 73 72 73 74 74 74 74 74 73 74 74 74 74 74 74 74 74 75 75 75 75 75 75 75 75 75 75 75 75 75 75 74 74 73 73 72 73 66 67 69 70 69 69 70 74 73 73 73 73 73 73 73 73 73 73 73 73 73
64 65 68 70 70 71 71 74 74 74 75 74 76 74 74 74 75 74 74 74 73 74 73 73 74 73 73 73 73 73 73 74 74 74 75 75 74 74 75 74 75 74 74 75 75 76 76 75 75 75 75 75 74 74 74 74 75 75 74 74 73 73 73 71 68 69 69 69 69 70 71 74 73 73 73 73 72 72 73 72 73 72 72 73 73
66 67 69 71 71 71 72 73 74 73 74 74 76 76 75 74 75 76 74 74 74 74 74 74 74 74 73 73 74 74 74 73 74 73 74 74 74 74 75 74 74 74 75 75 75 75 76 75 75 75 75 75 75 74 73 74 74 75 75 74 73 73 71 67 69 68 67 69 70 71 74 73 73 73 73 73 73 72 73 72 72 73 72 72 72
66 68 70 71 70 72 73 74 74 74 74 75 73 76 75 75 75 75 75 74 73 74 75 74 74 74 74 74 74 74 74 74 74 73 74 74 74 74 74 74 75 74 74 74 75 75 75 75 74 75 75 74 74 74 74 73 74 74 74 75 73 73 67 67 66 68 68 69 71 72 75 74 73 73 73 74 74 73 73 72 73 73 73 72 72
64 66 70 72 72 72 73 74 74 75 74 72 75 76 74 75 75 75 76 76 73 74 74 74 74 75 74 73 74 74 72 73 74 74 73 74 74 74 75 75 74 74 75 75 75 75 75 75 74 74 75 75 75 74 74 74 74 74 74 74 73 67 69 68 67 68 68 70 72 74 74 74 74 73 74 74 74 73 73 73 73 73 73 73 72
64 65 70 72 73 72 73 73 74 75 74 73 73 75 75 75 75 76 76 75 75 75 75 75 74 75 74 72 74 74 74 75 74 74 74 74 74 74 75 75 75 74 74 74 74 74 74 74 75 75 74 75 75 74 72 72 74 75 74 74 67 68 70 69 68 66 68 70 71 75 74 74 74 74 74 74 74 73 73 73 73 73 73 73 73
63 63 68 71 71 72 74 74 75 75 74 74 74 74 75 75 73 74 75 75 75 75 75 75 76 75 74 75 75 74 74 75 74 75 75 74 74 75 75 74 75 75 75 74 75 75 74 74 74 75 75 73 73 69 69 71 72 73 72 69 68 68 68 68 65 68 69 70 70 75 74 73 73 73 74 74 74 73 73 73 73 73 73 73 73
65 65 68 69 70 71 72 74 75 74 74 73 73 73 75 74 73 73 73 73 74 74 74 75 76 75 74 74 74 74 75 75 74 74 73 74 74 74 74 74 74 74 74 74 74 74 74 74 74 74 73 71 70 71 71 70 70 67 66 66 66 68 66 67 66 67 70 71 73 75 74 73 73 73 73 74 74 74 73 73 73 73 73 73 73
66 65 67 69 68 69 72 73 73 74 74 73 73 74 75 73 72 70 71 73 73 74 73 75 75 75 74 73 73 73 73 73 74 74 73 74 74 73 73 74 74 74 74 74 73 74 74 73 73 73 68 69 69 71 70 68 66 66 65 67 67 68 67 67 67 68 70 71 75 75 74 73 74 73 73 74 73 73 73 73 72 73 73 73 73
63 65 68 69 69 68 71 73 73 74 75 75 74 74 72 71 71 71 70 71 72 72 73 73 74 75 74 74 72 71 72 72 73 74 73 73 73 71 72 74 72 72 74 73 73 73 73 73 73 72 70 66 65 67 69 67 67 63 65 66 68 66 67 67 66 67 68 70 74 75 74 74 74 74 74 73 73 73 73 73 73 72 73 72 72
65 66 67 68 69 67 71 73 74 74 75 74 74 71 71 70 70 72 72 71 70 70 70 73 74 74 74 73 72 72 71 71 73 74 73 73 72 72 72 70 70 71 72 72 71 73 73 70 72 70 68 68 64 65 65 67 65 66 64 66 66 68 69 66 68 69 67 68 73 75 75 75 74 74 74 73 73 73 73 73 73 73 73 73 72
64 65 67 67 68 69 70 71 72 74 73 72 72 72 71 71 70 70 71 72 71 70 71 72 71 72 73 74 73 70 70 70 71 70 70 70 69 69 68 68 71 71 72 70 71 71 70 69 70 69 69 69 66 66 65 64 66 66 65 65 65 68 68 68 70 69 68 67 70 73 75 75 74 75 74 74 74 74 73 73 73 73 73 73 73
63 65 67 68 69 68 68 69 71 72 72 70 73 72 72 71 70 71 71 73 71 72 72 70 70 71 70 72 69 67 66 66 67 68 68 69 68 70 70 70 70 70 70 71 71 70 69 69 70 69 65 66 66 66 65 62 60 62 64 65 64 63 69 68 69 68 69 69 70 72 74 74 74 74 75 75 75 75 74 74 74 74 74 74 74
64 65 66 68 70 68 68 70 71 73 71 69 71 72 72 71 71 71 71 72 72 73 71 70 69 69 71 73 72 69 66 66 68 69 71 70 71 72 71 71 70 70 71 70 72 71 69 69 70 70 69 68 65 65 65 64 64 62 64 63 64 66 66 68 66 65 64 68 69 70 76 76 74 74 74 74 75 75 75 75 75 75 75 75 75
62 65 67 69 68 68 68 68 70 72 71 69 72 71 72 72 72 71 71 73 74 70 70 70 70 70 71 73 72 69 70 69 70 71 71 71 71 71 72 72 71 70 72 71 71 72 72 71 72 73 73 71 66 66 66 62 63 61 64 63 64 65 65 67 63 62 65 67 69 71 71 73 76 75 74 74 75 75 75 75 75 76 76 76 76
63 64 68 68 67 68 69 69 70 72 71 69 69 71 71 70 71 71 72 71 71 71 69 70 71 73 73 73 74 73 73 73 73 73 73 72 72 72 71 73 73 73 73 73 73 73 71 70 71 73 72 71 67 67 65 63 63 64 62 62 64 65 66 67 67 65 63 65 67 68 70 71 72 77 76 75 75 75 75 76 76 76 76 76 76
64 66 66 67 67 68 68 68 69 70 71 70 71 70 71 71 71 71 73 72 70 69 70 70 71 71 73 74 73 74 73 73 74 73 72 71 73 73 72 72 73 74 74 74 70 72 70 71 69 70 69 69 66 67 64 64 62 62 63 63 65 66 67 64 64 63 65 63 65 69 68 69 69 71 73 77 76 75 76 76 76 76 76 77 77
65 65 66 68 68 69 67 68 69 70 70 71 70 71 71 71 71 70 71 71 70 69 68 70 70 70 72 72 74 74 74 74 74 73 71 72 71 71 72 71 74 74 72 74 72 72 72 72 72 70 71 69 67 68 66 65 63 64 66 66 65 65 66 65 65 65 63 67 69 66 69 68 68 70 70 70 78 76 76 75 75 76 76 77 77
65 66 67 68 68 69 69 68 69 70 71 71 71 72 71 72 71 71 71 71 70 69 69 69 69 70 71 73 75 75 76 76 75 75 73 73 70 71 72 74 76 75 74 75 74 73 74 73 73 72 70 67 69 67 67 66 64 62 64 66 66 67 66 65 65 62 61 67 67 67 68 69 70 68 71 69 70 77 78 76 76 76 76 76 77
65 66 68 69 69 69 70 67 67 69 71 70 72 72 72 72 72 70 68 71 68 68 69 70 70 72 71 72 75 75 77 76 77 77 75 74 72 73 72 75 76 76 75 74 73 73 73 69 74 73 73 71 68 65 66 67 64 62 62 62 64 66 65 67 65 63 62 67 68 63 65 67 69 71 72 69 69 71 78 77 77 76 77 77 76
67 66 68 68 68 69 69 68 69 68 71 71 72 71 72 73 72 71 72 70 68 67 68 69 71 70 73 73 75 76 76 76 77 76 76 73 74 73 74 75 75 75 75 74 73 73 73 72 73 74 73 72 69 67 65 63 58 58 62 61 66 65 65 66 65 65 65 66 66 65 65 65 65 64 65 68 66 70 71 77 77 78 78 77 77
67 67 68 69 69 70 71 72 69 69 70 72 73 73 72 73 71 72 72 72 73 70 69 69 70 71 71 74 75 75 76 77 76 77 77 73 73 74 75 75 75 74 75 74 73 74 73 73 73 73 74 73 69 66 65 65 59 59 58 60 62 67 66 63 67 66 64 62 61 65 60 66 64 65 68 68 65 68 71 72 72 72 77 76 77
67 69 70 70 71 71 72 73 72 70 71 72 73 71 72 71 69 70 70 71 72 71 72 70 71 70 72 73 75 76 75 76 76 77 76 74 73 73 75 74 74 74 74 73 72 73 73 73 74 71 73 72 69 66 65 64 62 63 64 62 63 64 65 65 66 65 66 64 64 65 61 61 65 66 64 65 67 65 70 73 72 70 70 74 76
70 70 70 70 71 70 72 72 73 73 71 71 71 71 70 71 71 68 67 69 72 72 70 71 70 70 73 74 75 74 76 76 76 76 76 74 75 74 75 75 74 74 75 74 73 73 73 74 73 73 70 70 67 65 64 64 63 61 65 62 64 64 63 66 64 62 61 60 61 62 61 63 64 66 67 67 68 67 68 71 71 71 72 73 76
70 71 70 70 71 70 71 71 72 73 72 71 71 72 73 70 70 69 68 68 71 71 72 73 71 73 76 77 76 75 75 75 75 76 75 74 74 73 74 74 74 75 75 74 74 74 74 73 72 73 71 68 66 64 64 62 61 60 60 60 60 62 65 61 58 57 58 58 59 62 64 59 58 61 64 68 69 67 65 68 71 70 72 72 72
68 69 70 71 71 71 72 73 72 72 73 73 72 73 73 73 71 70 70 69 71 72 71 72 73 71 73 75 76 76 75 75 75 75 74 73 74 73 74 74 75 75 75 74 74 74 74 73 73 71 69 68 66 65 68 67 60 61 64 62 59 56 62 60 58 57 54 55 56 56 58 55 57 61 64 65 66 69 65 67 69 71 72 72 72
68 68 68 70 71 73 73 73 73 72 73 74 74 74 74 75 74 74 73 72 72 74 75 74 74 73 72 73 76 76 75 75 75 73 74 74 74 74 74 74 74 75 75 74 74 74 75 73 72 72 72 67 63 63 65 67 67 63 61 61 61 56 56 60 60 57 54 53 54 53 55 56 58 62 65 64 61 66 68 68 67 71 72 73 73
66 68 67 68 68 71 73 74 73 72 73 75 74 75 74 74 75 76 75 75 74 74 73 71 72 73 72 72 74 75 75 75 74 74 73 74 75 74 74 74 74 74 74 73 74 72 73 73 73 74 72 69 63 62 65 64 67 69 66 62 59 60 59 57 54 58 54 53 53 54 56 57 56 61 60 61 63 64 62 63 69 70 72 71 72
66 68 67 66 68 70 73 74 73 72 73 75 75 75 74 73 74 73 73 72 72 72 71 71 70 69 69 71 73 73 74 75 75 75 74 74 74 75 75 74 73 73 73 73 73 71 72 73 73 73 72 72 71 63 61 66 65 70 68 64 67 63 63 61 58 56 62 56 55 54 57 56 56 59 63 61 60 61 64 64 67 67 69 71 71
65 66 66 67 68 70 73 74 73 73 73 75 75 75 74 74 74 72 72 71 71 71 73 71 71 71 72 72 74 74 75 73 73 75 74 74 75 74 75 74 73 73 74 73 72 71 71 72 74 73 73 73 72 68 65 63 67 66 62 62 64 64 62 62 61 60 58 59 58 54 55 56 55 55 55 56 58 59 63 65 62 63 68 71 71
64 65 65 66 70 72 73 74 74 73 74 75 75 75 74 73 74 73 72 72 69 71 73 74 73 74 74 73 72 72 74 74 74 74 75 74 74 74 75 74 73 73 72 72 72 72 73 74 74 74 75 74 73 70 68 65 63 65 66 65 64 65 66 62 62 61 61 60 57 55 55 55 56 55 56 55 56 59 61 62 64 63 66 69 70
64 64 65 66 70 72 74 74 74 74 74 75 75 75 75 74 74 73 73 73 72 72 73 73 73 74 74 74 75 72 73 74 74 73 74 74 74 74 75 75 73 73 73 72 72 72 73 75 74 75 74 74 73 72 72 69 65 64 67 69 66 64 61 62 63 61 61 60 55 57 58 57 57 58 59 57 57 59 60 61 65 63 69 71 72
64 64 65 65 68 72 74 74 74 73 74 76 75 75 75 75 74 74 74 74 74 74 73 74 75 75 75 75 75 74 71 71 72 74 74 74 74 74 74 74 73 72 72 74 73 74 74 74 74 74 75 74 74 71 71 70 68 67 67 68 69 66 66 63 60 59 59 62 58 55 56 57 59 58 60 58 59 60 61 62 62 62 67 70 70
65 65 64 64 66 70 73 74 74 73 74 75 75 75 75 75 75 75 75 75 75 75 75 75 75 76 75 74 74 73 72 71 71 72 72 73 74 74 73 73 74 74 74 74 74 72 71 71 72 74 75 75 73 73 70 70 70 69 67 68 67 63 64 63 64 62 61 60 59 56 56 56 56 57 60 60 62 60 62 61 60 60 66 70 71